Location: Misciano
(43.5000°N, 11.9500°E)
Time: 09:19:32
(UTC+00:00)

CENTAUR R/B - Pass Details

Date: 13 August 2020
Orbit: 754 x 1434 km, 63.5° (Epoch: 17 September)

Event Time Altitude Azimuth Distance (km) Brightness Sun altitude
Rises 18:48:49 0° 170° (S) 3,337 5.0 -5.9°
Reaches altitude 10° 18:51:40 10° 155° (SSE) 2,488 4.2 -6.4°
Maximum altitude 18:55:54 21° 107° (ESE) 1,944 3.5 -7.1°
Drops below altitude 10° 19:00:35 10° 60° (ENE) 2,810 4.6 -7.8°
Sets 19:04:02 0° 46° (NE) 3,899 5.5 -8.4°
